Change the Weather History Date:

Friday, August 24, 2012

  Actual Average Record
Temperature  
Mean Temperature 77 °F 68 °F  
Max Temperature 87 °F 79 °F 103 °F (1948)
Min Temperature 66 °F 57 °F 39 °F (1942)
Degree Days  
Heating Degree Days 0 1  
Month to date heating degree days 25 19  
Since 1 June heating degree days 53 92  
Since 1 July heating degree days 25 30  
Cooling Degree Days 12 4  
Month to date cooling degree days 92 133  
Year to date cooling degree days 706 499  
Since 1 June cooling degree days 636 467  
Growing Degree Days 26 (Base 50)    
Moisture  
Dew Point 63 °F    
Average Humidity 61    
Maximum Humidity 73    
Minimum Humidity 48    
Precipitation  
Precipitation 0.10 in 0.13 in 1.07 in (2006)
Month to date precipitation 1.88 3.55  
Year to date precipitation 18.98 21.20  
Snow  
Snow 0.00 in 0.00 in 0.00 in ()
Month to date snowfall 0.0 0.0  
Since 1 June snowfall 0.0 0.0  
Since 1 July snowfall 0.0 0.0  
Snow Depth 0.00 in    
Sea Level Pressure  
Sea Level Pressure 29.86 in    
Wind  
Wind Speed 12 mph (South)    
Max Wind Speed 21 mph    
Max Gust Speed 28 mph    
Visibility 10 miles    
Events Rain , Thunderstorm    
T = Trace of Precipitation, MM = Missing Value Source: NWS Daily Summary

Daily Weather History Graph

Daily Weather History Graph

Search for Another Location

Airport or City:

Trip Planner

Search our weather history database for the weather conditions in past years. The results will help you decide how hot, cold, wet, or windy it might be!

Date:

Astronomy

Aug. 24, 2012 Rise Set
Actual Time 6:19 AM CDT 7:56 PM CDT
Civil Twilight 5:48 AM CDT 8:26 PM CDT
Nautical Twilight 5:10 AM CDT 9:04 PM CDT
Astronomical Twilight 4:30 AM CDT 9:44 PM CDT
Moon 2:34 PM CDT (8/24) 11:55 PM CDT (8/24)
Length of Visible Light 14h 38m
Length of Day
13h 36m
First Quarter, 52% of the Moon is Illuminated
Aug 24
First Quarter
Aug 31
Full
Sep 8
Last Quarter
Sep 15
New
Sep 22
First Quarter

Hourly Weather History & Observations

Time (CDT) Temp. Heat Index Dew Point Humidity Pressure Visibility Wind Dir Wind Speed Gust Speed Precip Events Conditions
12:41 AM 78.8 °F - 57.2 °F 47% 29.85 in 10.0 mi South 10.4 mph - 0.00 in Rain , Thunderstorm Light Rain
12:56 AM 75.9 °F - 57.9 °F 54% 29.86 in 10.0 mi WSW 4.6 mph 16.1 mph 0.01 in Thunderstorm Thunderstorm
1:42 AM 69.8 °F - 62.6 °F 78% 29.88 in 10.0 mi South 3.5 mph - 0.03 in Thunderstorm Mostly Cloudy
1:56 AM 69.1 °F - 63.0 °F 81% 29.88 in 10.0 mi South 8.1 mph - 0.03 in Thunderstorm Partly Cloudy
2:07 AM 69.8 °F - 62.6 °F 78% 29.89 in 10.0 mi South 5.8 mph - N/A   Partly Cloudy
2:56 AM 69.1 °F - 62.1 °F 78% 29.86 in 10.0 mi South 13.8 mph - N/A   Partly Cloudy
3:56 AM 69.1 °F - 61.0 °F 75% 29.89 in 10.0 mi SSW 11.5 mph - 0.00 in Rain Light Rain
4:22 AM 68.0 °F - 62.6 °F 83% 29.88 in 10.0 mi South 11.5 mph - 0.01 in Thunderstorm Partly Cloudy
4:56 AM 66.2 °F - 62.6 °F 88% 29.86 in 10.0 mi SSE 11.5 mph - N/A Thunderstorm Overcast
4:59 AM 66.2 °F - 62.6 °F 88% 29.86 in 10.0 mi SE 6.9 mph - N/A Thunderstorm Overcast
5:20 AM 66.2 °F - 62.6 °F 88% 29.86 in 10.0 mi South 8.1 mph - N/A   Mostly Cloudy
5:56 AM 69.1 °F - 61.0 °F 75% 29.85 in 10.0 mi South 17.3 mph 25.3 mph N/A   Partly Cloudy
6:56 AM 69.1 °F - 60.1 °F 73% 29.86 in 10.0 mi South 15.0 mph 23.0 mph N/A   Overcast
7:56 AM 69.1 °F - 60.1 °F 73% 29.86 in 10.0 mi South 16.1 mph 24.2 mph N/A   Mostly Cloudy
8:56 AM 71.1 °F - 61.0 °F 70% 29.86 in 10.0 mi South 16.1 mph - N/A   Clear
9:56 AM 75.0 °F - 61.0 °F 62% 29.86 in 10.0 mi SSW 17.3 mph - N/A   Clear
10:56 AM 79.0 °F - 62.1 °F 56% 29.86 in 10.0 mi SW 17.3 mph - N/A   Clear
11:56 AM 82.0 °F 83.4 °F 64.0 °F 54% 29.86 in 10.0 mi SSW 12.7 mph - N/A   Clear
12:56 PM 82.9 °F 84.6 °F 64.9 °F 54% 29.86 in 10.0 mi SSW 15.0 mph - N/A   Scattered Clouds
1:56 PM 84.0 °F 86.3 °F 66.0 °F 55% 29.86 in 10.0 mi SSW 13.8 mph - N/A   Clear
2:56 PM 82.9 °F 85.0 °F 66.0 °F 56% 29.86 in 10.0 mi SSW 16.1 mph 20.7 mph N/A   Mostly Cloudy
3:56 PM 87.1 °F 89.9 °F 66.9 °F 51% 29.84 in 10.0 mi SSW 9.2 mph 20.7 mph N/A   Partly Cloudy
4:56 PM 87.1 °F 89.2 °F 66.0 °F 49% 29.85 in 10.0 mi SSW 15.0 mph - N/A   Partly Cloudy
5:56 PM 86.0 °F 87.6 °F 64.9 °F 49% 29.84 in 10.0 mi SW 11.5 mph 19.6 mph N/A   Partly Cloudy
6:56 PM 84.2 °F 85.0 °F 62.6 °F 48% 29.86 in 10.0 mi SSW 11.5 mph - N/A   Clear
7:56 PM 82.0 °F 83.1 °F 63.0 °F 52% 29.85 in 10.0 mi South 6.9 mph - N/A   Clear
8:56 PM 79.0 °F - 64.0 °F 60% 29.87 in 10.0 mi SSE 5.8 mph - N/A   Clear
9:56 PM 77.0 °F - 63.0 °F 62% 29.87 in 10.0 mi South 6.9 mph - N/A   Clear
11:56 PM 73.9 °F - 61.0 °F 64% 29.88 in 10.0 mi South 6.9 mph - N/A   Partly Cloudy